Indianapolis, IN

6:24 AM EST on November 22, 2019 (GMT -0500)
Indianapolis Terry

Weather History for KTYQ - June, 2019

Change the Weather History Date:

Saturday, June 1, 2019

  Actual Average (KEYE) Record (KEYE)
Temperature  
Mean Temperature 68 °F -  
Max Temperature 80 °F 71 °F 88 °F (2018)
Min Temperature 57 °F 55 °F 39 °F (2003)
Cooling Degree Days 4    
Growing Degree Days 18 (Base 50)    
Moisture  
Dew Point 63 °F    
Average Humidity 81    
Maximum Humidity 100    
Minimum Humidity 56    
Precipitation  
Precipitation 0.08 in - - ()
Sea Level Pressure  
Sea Level Pressure 29.86 in    
Wind  
Wind Speed 6 mph ()    
Max Wind Speed 17 mph    
Max Gust Speed 21 mph    
Visibility 9.9 miles    
Events Rain , Thunderstorm    
Averages and records for this station are not official NWS values.
T = Trace of Precipitation, MM = Missing Value Source: Averaged Metar Reports

Daily Weather History Graph

Daily Weather History Graph

Search for Another Location

Airport or City:

Astronomy

Jun. 01, 2019 Rise Set
Actual Time 6:18 AM EDT 9:07 PM EDT
Civil Twilight 5:46 AM EDT 9:39 PM EDT
Nautical Twilight 5:05 AM EDT 10:20 PM EDT
Astronomical Twilight 4:19 AM EDT 11:06 PM EDT
Moon 5:22 AM EDT (6/1) 7:20 PM EDT (6/1)
Length of Visible Light 15h 53m
Length of Day
14h 49m
Waning Crescent, 4% of the Moon is Illuminated
Jun 1
Waning Crescent
Jun 3
New
Jun 10
First Quarter
Jun 17
Full
Jun 25
Last Quarter

Hourly Weather History & Observations

Time (EDT) Temp. Heat Index Dew Point Humidity Pressure Visibility Wind Dir Wind Speed Gust Speed Precip Events Conditions
12:15 AM 62.1 °F - 62.1 °F 100% 29.91 in 10.0 mi SW 3.5 mph - N/A   Clear
12:35 AM 62.1 °F - 61.7 °F 99% 29.91 in 10.0 mi SW 3.5 mph - N/A   Clear
12:55 AM 62.6 °F - 60.8 °F 94% 29.91 in 10.0 mi WSW 3.5 mph - N/A   Clear
1:15 AM 62.8 °F - 60.3 °F 91% 29.91 in 10.0 mi SW 4.6 mph - N/A   Clear
1:35 AM 62.1 °F - 61.0 °F 96% 29.91 in 10.0 mi SW 3.5 mph - N/A   Clear
1:55 AM 60.4 °F - 60.4 °F 100% 29.91 in 10.0 mi Calm Calm - N/A   Clear
2:15 AM 61.3 °F - 60.3 °F 96% 29.91 in 10.0 mi WSW 3.5 mph - N/A   Clear
2:35 AM 60.8 °F - 60.8 °F 100% 29.90 in 10.0 mi SSW 3.5 mph - N/A   Clear
2:55 AM 60.8 °F - 59.9 °F 97% 29.90 in 10.0 mi WSW 4.6 mph - N/A   Clear
3:15 AM 61.0 °F - 60.1 °F 97% 29.89 in 10.0 mi WSW 4.6 mph - N/A   Clear
3:35 AM 61.0 °F - 60.8 °F 99% 29.89 in 10.0 mi West 5.8 mph - N/A   Clear
3:55 AM 60.8 °F - 60.8 °F 100% 29.89 in 10.0 mi West 4.6 mph - N/A   Clear
4:15 AM 60.8 °F - 60.8 °F 100% 29.89 in 10.0 mi West 3.5 mph - N/A   Clear
4:35 AM 60.4 °F - 60.4 °F 100% 29.89 in 10.0 mi SW 4.6 mph - N/A   Clear
4:55 AM 60.1 °F - 60.1 °F 100% 29.89 in 10.0 mi WSW 3.5 mph - N/A   Clear
5:15 AM 59.9 °F - 59.9 °F 100% 29.89 in 10.0 mi Calm Calm - N/A   Clear
5:35 AM 58.3 °F - 58.3 °F 100% 29.89 in 10.0 mi SW 3.5 mph - N/A   Clear
5:55 AM 57.6 °F - 57.6 °F 100% 29.89 in 10.0 mi SSW 3.5 mph - N/A   Clear
6:15 AM 57.6 °F - 57.6 °F 100% 29.90 in 10.0 mi South 3.5 mph - N/A   Clear
6:35 AM 57.2 °F - 57.2 °F 100% 29.90 in 10.0 mi South 4.6 mph - N/A   Clear
6:55 AM 57.6 °F - 57.6 °F 100% 29.90 in 10.0 mi SSW 3.5 mph - N/A   Clear
7:15 AM 58.1 °F - 58.1 °F 100% 29.91 in 10.0 mi WSW 3.5 mph - N/A   Clear
7:35 AM 59.7 °F - 59.7 °F 100% 29.91 in 10.0 mi SSW 3.5 mph - N/A   Clear
7:55 AM 62.1 °F - 62.1 °F 100% 29.91 in 10.0 mi Calm Calm - N/A   Clear
8:15 AM 63.0 °F - 62.8 °F 99% 29.92 in 10.0 mi WSW 3.5 mph - N/A   Clear
8:35 AM 64.8 °F - 64.0 °F 98% 29.92 in 10.0 mi SW 4.6 mph - N/A   Clear
8:55 AM 66.4 °F - 64.4 °F 93% 29.92 in 10.0 mi SW 6.9 mph - N/A   Clear
9:15 AM 67.5 °F - 64.4 °F 90% 29.91 in 10.0 mi SW 5.8 mph - N/A   Clear
9:35 AM 68.4 °F - 64.2 °F 87% 29.91 in 10.0 mi WSW 9.2 mph - N/A   Clear
9:55 AM 69.4 °F - 64.4 °F 84% 29.91 in 10.0 mi SW 8.1 mph - N/A   Clear
10:15 AM 70.5 °F - 63.1 °F 77% 29.91 in 10.0 mi SW 8.1 mph - N/A   Clear
10:35 AM 72.5 °F - 64.0 °F 75% 29.91 in 10.0 mi SW 12.7 mph - N/A   Clear
10:55 AM 72.5 °F - 63.0 °F 72% 29.91 in 10.0 mi SW 11.5 mph - N/A   Clear
11:15 AM 72.9 °F - 64.2 °F 74% 29.91 in 10.0 mi WSW 13.8 mph - N/A   Clear
11:35 AM 72.9 °F - 64.4 °F 75% 29.91 in 10.0 mi WSW 9.2 mph 16.1 mph N/A   Clear
11:55 AM 73.9 °F - 64.6 °F 72% 29.90 in 10.0 mi SW 11.5 mph - N/A   Clear
12:15 PM 75.0 °F - 64.6 °F 70% 29.90 in 10.0 mi WSW 10.4 mph 17.3 mph N/A   Clear
12:35 PM 75.2 °F - 64.4 °F 69% 29.90 in 10.0 mi West 11.5 mph 17.3 mph N/A   Clear
12:55 PM 76.3 °F - 63.5 °F 64% 29.89 in 10.0 mi WSW 11.5 mph 19.6 mph N/A   Clear
1:15 PM 77.0 °F - 64.8 °F 66% 29.89 in 10.0 mi SW 12.7 mph 17.3 mph N/A   Clear
1:35 PM 77.0 °F - 64.6 °F 65% 29.88 in 10.0 mi West 11.5 mph - N/A   Clear
1:55 PM 77.5 °F - 63.7 °F 62% 29.87 in 10.0 mi WSW 13.8 mph - N/A   Clear
2:15 PM 78.4 °F - 64.8 °F 63% 29.87 in 10.0 mi WSW 9.2 mph - N/A   Clear
2:35 PM 78.8 °F - 64.0 °F 60% 29.86 in 10.0 mi WSW 10.4 mph 17.3 mph N/A   Scattered Clouds
2:55 PM 78.8 °F - 63.7 °F 60% 29.86 in 10.0 mi West 10.4 mph 20.7 mph N/A   Scattered Clouds
3:15 PM 79.5 °F - 64.8 °F 60% 29.86 in 10.0 mi WSW 10.4 mph 17.3 mph N/A   Scattered Clouds
3:35 PM 79.5 °F - 64.0 °F 59% 29.85 in 10.0 mi WSW 10.4 mph 18.4 mph N/A   Scattered Clouds
3:55 PM 79.9 °F - 64.0 °F 58% 29.85 in 10.0 mi West 12.7 mph 19.6 mph N/A   Scattered Clouds
4:15 PM 80.2 °F 81.9 °F 64.2 °F 58% 29.84 in 10.0 mi SW 10.4 mph 19.6 mph N/A   Scattered Clouds
4:35 PM 80.6 °F 82.2 °F 64.0 °F 57% 29.83 in 10.0 mi SW 13.8 mph - N/A   Scattered Clouds
4:55 PM 80.2 °F 81.8 °F 63.5 °F 57% 29.83 in 10.0 mi SW 11.5 mph - N/A   Scattered Clouds
5:15 PM 79.9 °F - 63.3 °F 57% 29.83 in 10.0 mi WSW 13.8 mph 19.6 mph N/A   Scattered Clouds
5:35 PM 79.7 °F - 63.5 °F 58% 29.81 in 10.0 mi WSW 12.7 mph 18.4 mph N/A   Scattered Clouds
5:55 PM 79.5 °F - 62.8 °F 56% 29.81 in 10.0 mi SW 12.7 mph 18.4 mph N/A   Scattered Clouds
6:15 PM 78.3 °F - 62.8 °F 59% 29.80 in 10.0 mi SW 17.3 mph - N/A   Clear
6:35 PM 77.0 °F - 63.9 °F 64% 29.80 in 10.0 mi SW 9.2 mph - N/A   Clear
6:55 PM 78.1 °F - 64.0 °F 62% 29.79 in 10.0 mi SW 11.5 mph 17.3 mph N/A   Clear
7:15 PM 75.4 °F - 64.6 °F 69% 29.79 in 10.0 mi SW 11.5 mph - N/A   Clear
7:35 PM 75.2 °F - 64.2 °F 69% 29.79 in 10.0 mi SW 9.2 mph - N/A   Clear
7:55 PM 75.2 °F - 63.3 °F 66% 29.79 in 10.0 mi SSW 12.7 mph 16.1 mph N/A   Clear
8:15 PM 75.2 °F - 63.1 °F 66% 29.79 in 10.0 mi SW 9.2 mph - N/A   Clear
8:35 PM 73.6 °F - 63.1 °F 70% 29.78 in 10.0 mi SSW 8.1 mph - N/A   Clear
8:55 PM 73.4 °F - 62.8 °F 69% 29.79 in 10.0 mi SW 12.7 mph 16.1 mph N/A   Clear
9:15 PM 73.4 °F - 61.9 °F 67% 29.79 in 10.0 mi SW 9.2 mph - N/A   Scattered Clouds
9:35 PM 72.3 °F - 63.3 °F 73% 29.79 in 10.0 mi SW 9.2 mph - N/A Rain , Thunderstorm Light Thunderstorms and Rain
9:55 PM 69.6 °F - 65.1 °F 86% 29.81 in 7.0 mi West 5.8 mph - 0.03 in Rain , Thunderstorm Heavy Thunderstorms and Rain
10:15 PM 67.5 °F - 65.5 °F 93% 29.82 in 7.0 mi Calm Calm - 0.05 in Rain , Thunderstorm Thunderstorms and Rain
10:35 PM 68.2 °F - 65.8 °F 92% 29.81 in 10.0 mi Calm Calm - 0.05 in Rain , Thunderstorm Light Thunderstorms and Rain
10:55 PM 67.5 °F - 66.6 °F 97% 29.79 in 10.0 mi South 4.6 mph - 0.05 in Thunderstorm Mostly Cloudy
11:15 PM 66.2 °F - 66.2 °F 100% 29.78 in 10.0 mi SSW 5.8 mph - N/A Thunderstorm Clear
11:35 PM 67.6 °F - 65.5 °F 93% 29.78 in 10.0 mi SW 8.1 mph - N/A   Scattered Clouds
11:55 PM 68.2 °F - 64.0 °F 87% 29.78 in 10.0 mi WSW 10.4 mph - N/A   Scattered Clouds